CW5391 Weather Reports


time (UTC)temp
C
wind
direction
speed
KPH
gust
KPH
rain 1hr
cm
rain 24hr
cm
rain mn
cm
humidity
%
barometer
mb
20260506192815 -17 0.0 0.0 0.46 2.69 2.69 1002.5
20260506192323 6 315 3.2 17.7 0.51 2.69 2.69 96 1002.5
20260506191830 6 315 3.2 17.7 0.56 2.69 2.69 96 1002.5
20260506191319 6 275 3.2 17.7 0.61 2.69 2.69 96 1002.4
20260506190814 6 302 4.8 11.3 0.58 2.62 2.62 96 1002.4
20260506190323 6 308 4.8 17.7 0.51 2.51 2.51 96 1002.4
20260506185831 6 49 4.8 19.3 0.48 2.46 2.46 95 1002.4
20260506185338 6 355 11.3 19.3 0.46 2.41 2.41 95 1002.4
20260506184822 6 338 9.7 17.7 0.46 2.36 2.36 96 1002.4
20260506184345 6 336 6.4 14.5 0.51 2.34 2.34 96 1002.5
20260506183827 6 15 4.8 16.1 0.48 2.31 2.31 96 1002.5
20260506183337 6 290 9.7 22.5 0.51 2.29 2.29 95 1002.5
20260506182853 6 323 12.9 22.5 0.48 2.24 2.24 95 1002.5
20260506182332 7 306 8.0 19.3 0.46 2.16 2.16 95 1002.5
20260506181822 7 360 8.0 19.3 0.46 2.11 2.11 95 1002.5
20260506181350 7 360 11.3 19.3 0.46 2.08 2.08 95 1002.1
20260506180845 7 342 6.4 19.3 0.46 2.03 2.03 95 1002.1
20260506180314 7 347 11.3 22.5 0.46 2.01 2.01 95 1002.1
20260506175821 7 348 11.3 22.5 0.46 1.98 1.98 95 1002.6
20260506175345 7 148 4.8 20.9 0.46 1.96 1.96 96 1002.6
20260506174816 7 325 9.7 20.9 0.41 1.88 1.88 96 1002.6
20260506174338 7 26 6.4 11.3 0.41 1.83 1.83 96 1002.1
20260506173844 7 343 3.2 8.0 0.43 1.83 1.83 96 1002.1
20260506173312 7 344 3.2 9.7 0.41 1.78 1.78 96 1002.1
20260506172821 7 292 4.8 9.7 0.38 1.73 1.73 96 1002.5
20260506172354 7 300 3.2 11.3 0.36 1.70 1.70 96 1002.5
20260506171844 7 360 6.4 11.3 0.48 1.65 1.65 96 1002.5
20260506171314 7 311 4.8 8.0 0.43 1.60 1.60 96 1002.6
20260506170824 7 45 3.2 9.7 0.41 1.57 1.57 96 1002.6
20260506170332 7 360 6.4 14.5 0.38 1.55 1.55 96 1002.6
20260506165820 7 355 6.4 17.7 0.33 1.50 1.50 96 1003.1
20260506165313 7 5 8.0 17.7 0.30 1.47 1.47 95 1003.1
20260506164819 8 12 6.4 16.1 0.30 1.47 1.47 95 1003.1
20260506164323 8 346 6.4 16.1 0.28 1.42 1.42 95 1003.0
20260506163815 8 321 6.4 9.7 0.30 1.40 1.40 96 1003.0
20260506163343 8 355 4.8 9.7 0.30 1.37 1.37 96 1003.0
20260506162826 8 337 3.2 6.4 0.30 1.35 1.35 96 1003.0
20260506162318 8 355 526.3 3.2 0.30 1.32 1.32 96 1003.0
20260506161827 -17 0.0 0.0 0.20 1.17 1.17 1003.0
20260506161344 -17 0.0 0.0 0.23 1.17 1.17 1003.1
20260506160814 -17 0.0 0.0 0.25 1.17 1.17 1003.1
20260506160340 9 314 3.2 8.0 0.28 1.17 1.17 96 1003.1
20260506155824 9 314 3.2 8.0 0.33 1.17 1.17 96 1003.3
20260506155316 9 336 3.2 8.0 0.38 1.17 1.17 96 1003.3
20260506154843 9 336 3.2 6.4 0.43 1.17 1.17 96 1003.3
20260506154327 9 355 0.0 1.6 0.46 1.14 1.14 96 1003.2
20260506153815 9 355 0.0 3.2 0.46 1.09 1.09 96 1003.2
20260506153359 9 355 0.0 3.2 0.48 1.07 1.07 95 1003.2
20260506152812 9 355 0.0 3.2 0.48 1.04 1.04 96 1003.5
20260506152324 9 355 1.6 3.2 0.46 0.99 0.99 96 1003.5
20260506151839 9 355 0.0 3.2 0.48 0.97 0.97 96 1003.5
20260506151327 9 355 1.6 3.2 0.51 0.94 0.94 96 1003.7
20260506150835 10 355 0.0 3.2 0.48 0.91 0.91 96 1003.7
20260506150339 10 355 0.0 4.8 0.46 0.86 0.86 96 1003.7
20260506145816 10 355 1.6 8.0 0.46 0.84 0.84 96 1004.2
20260506145324 10 325 3.2 8.0 0.41 0.79 0.79 96 1004.2
20260506144833 10 306 3.2 8.0 0.38 0.74 0.74 95 1004.2
20260506144339 10 319 3.2 6.4 0.33 0.69 0.69 95 1004.2
20260506143812 10 306 3.2 8.0 0.30 0.64 0.64 95 1004.2
20260506143320 10 350 4.8 9.7 0.28 0.58 0.58 95 1004.2
20260506142828 10 342 3.2 9.7 0.28 0.56 0.56 95 1004.2
20260506142329 11 301 3.2 6.4 0.25 0.51 0.51 96 1004.2
20260506141824 11 342 1.6 6.4 0.20 0.43 0.43 96 1004.2
20260506141329 11 342 1.6 6.4 0.20 0.43 0.43 96 1004.0
20260506140823 11 342 1.6 4.8 0.20 0.41 0.41 96 1004.0
20260506140333 11 325 1.6 4.8 0.20 0.38 0.38 96 1004.0
20260506135844 11 313 1.6 6.4 0.20 0.38 0.38 96 1003.9
20260506135318 11 334 3.2 6.4 0.23 0.38 0.38 96 1003.9
20260506134822 11 304 1.6 4.8 0.20 0.36 0.36 96 1003.9
20260506134325 11 311 1.6 4.8 0.20 0.33 0.33 96 1003.7
20260506133854 11 336 1.6 6.4 0.20 0.33 0.33 95 1003.7
20260506133325 11 311 3.2 6.4 0.20 0.30 0.30 96 1003.7
20260506132832 11 306 0.0 4.8 0.18 0.28 0.28 96 1003.8
20260506132341 11 322 1.6 6.4 0.18 0.25 0.25 96 1003.8
20260506131814 11 325 1.6 6.4 0.15 0.23 0.23 96 1003.8
20260506131325 11 350 1.6 4.8 0.13 0.20 0.20 96 1004.0
20260506130850 11 323 3.2 4.8 0.13 0.20 0.20 96 1004.0
20260506130350 11 283 0.0 6.4 0.10 0.18 0.18 96 1004.0
20260506125835 11 5 3.2 8.0 0.10 0.18 0.18 96 1004.2
20260506125330 11 308 3.2 8.0 0.10 0.15 0.15 95 1004.2
20260506124839 11 307 4.8 8.0 0.10 0.15 0.15 95 1004.2
20260506124330 11 290 3.2 11.3 0.08 0.13 0.13 95 1004.7
20260506123819 11 349 4.8 12.9 0.05 0.10 0.10 95 1004.7
20260506123345 12 308 4.8 12.9 0.05 0.10 0.10 95 1004.7
20260506122835 12 24 6.4 8.0 0.05 0.10 0.10 95 1004.4
20260506122311 12 342 4.8 8.0 0.03 0.08 0.08 95 1004.4
20260506121825 12 319 3.2 6.4 0.03 0.08 0.08 95 1004.4
20260506121333 12 340 3.2 8.0 0.03 0.08 0.08 96 1003.9
20260506120829 12 15 3.2 8.0 0.03 0.08 0.08 96 1003.9
20260506120334 12 355 1.6 6.4 0.03 0.08 0.08 96 1003.9
20260506115838 12 336 3.2 8.0 0.03 0.08 0.08 96 1004.1
20260506115330 12 290 4.8 9.7 0.00 0.05 0.05 96 1004.1
20260506114821 12 304 4.8 9.7 0.00 0.05 0.05 96 1004.1
20260506114318 12 300 0.0 4.8 0.00 0.05 0.05 96 1004.1
20260506113843 12 300 0.0 4.8 0.00 0.05 0.05 96 1004.1
20260506113347 12 324 0.0 4.8 0.00 0.05 0.05 96 1004.1
20260506112821 12 324 0.0 4.8 0.00 0.05 0.05 96 1003.8
20260506112315 12 324 0.0 4.8 0.00 0.05 0.05 96 1003.8
20260506111823 12 103 1.6 4.8 0.00 0.05 0.05 96 1003.8
20260506111314 12 103 0.0 4.8 0.00 0.05 0.05 96 1004.2
20260506110819 12 90 0.0 0.0 0.00 0.05 0.05 96 1004.2
20260506110331 12 90 0.0 0.0 0.00 0.05 0.05 96 1004.2
20260506105842 12 90 0.0 0.0 0.00 0.05 0.05 96 1003.7
20260506105342 12 90 0.0 0.0 0.00 0.05 0.05 96 1003.7
20260506104810 12 90 0.0 0.0 0.00 0.05 0.05 96 1003.7
20260506104346 12 90 0.0 0.0 0.00 0.05 0.05 95 1003.6
20260506103814 12 90 0.0 0.0 0.00 0.05 0.05 95 1003.6
20260506103344 12 90 0.0 0.0 0.00 0.05 0.05 95 1003.6
20260506102829 12 90 0.0 0.0 0.00 0.05 0.05 96 1003.6
20260506102326 12 90 0.0 0.0 0.00 0.05 0.05 95 1003.6
20260506101813 12 90 0.0 0.0 0.00 0.05 0.05 95 1003.6
20260506101323 12 90 0.0 0.0 0.00 0.05 0.05 95 1003.5
20260506100832 12 90 0.0 0.0 0.00 0.05 0.05 95 1003.5
20260506100314 11 90 0.0 0.0 0.00 0.05 0.05 95 1003.5
20260506095818 11 90 0.0 0.0 0.00 0.05 0.05 95 1003.6
20260506095321 11 90 526.3 0.0 0.00 0.05 0.05 94 1003.6
20260506094847 -17 0.0 0.0 0.00 0.05 0.05 1003.6
20260506094332 -17 0.0 0.0 0.00 0.05 0.05 1003.4
20260506093837 -17 0.0 0.0 0.00 0.05 0.05 1003.4
20260506093315 12 90 0.0 0.0 0.00 0.05 0.05 94 1003.4
20260506092823 12 90 0.0 0.0 0.00 0.05 0.05 94 1003.7
20260506092328 12 90 0.0 0.0 0.00 0.05 0.05 93 1003.7
20260506091820 12 90 0.0 0.0 0.00 0.05 0.05 93 1003.7
20260506091326 12 90 0.0 0.0 0.00 0.05 0.05 93 1003.6
20260506090835 12 90 0.0 0.0 0.00 0.05 0.05 94 1003.6
20260506090340 12 90 0.0 0.0 0.00 0.05 0.05 94 1003.6
20260506085814 12 90 0.0 0.0 0.00 0.05 0.05 94 1003.8
20260506085324 12 90 0.0 0.0 0.00 0.05 0.05 94 1003.8
20260506084818 12 90 0.0 0.0 0.00 0.05 0.05 94 1003.8
20260506084319 12 90 0.0 0.0 0.00 0.05 0.05 94 1004.2
20260506083843 12 90 0.0 0.0 0.00 0.05 0.05 94 1004.2
20260506083319 12 90 0.0 0.0 0.00 0.05 0.05 93 1004.2
20260506082812 12 90 0.0 0.0 0.00 0.05 0.05 93 1004.1
20260506082314 13 90 0.0 0.0 0.00 0.05 0.05 93 1004.1
20260506081827 13 90 0.0 0.0 0.00 0.05 0.05 94 1004.1
20260506081407 13 90 0.0 0.0 0.00 0.05 0.05 94 1004.2
20260506080827 13 90 0.0 0.0 0.00 0.05 0.05 95 1004.2
20260506080332 13 90 0.0 0.0 0.00 0.05 0.05 95 1004.2
20260506073315 13 90 0.0 0.0 0.00 0.05 0.05 94 1004.3
20260506072826 13 90 0.0 0.0 0.00 0.05 0.05 94 1004.4
20260506072350 13 90 0.0 0.0 0.00 0.05 0.05 95 1004.4
20260506071817 13 90 526.3 0.0 0.00 0.05 0.05 94 1004.4
20260506071319 -17 0.0 0.0 0.00 0.05 0.05 1004.3
20260506070846 -17 0.0 0.0 0.00 0.05 0.05 1004.3
20260506070331 -17 0.0 0.0 0.00 0.05 0.05 1004.3
20260506062318 13 106 0.0 0.0 0.00 0.05 0.05 93 1004.5
20260506061826 13 106 0.0 0.0 0.00 0.05 0.05 93 1004.5
20260506061353 13 106 0.0 3.2 0.00 0.05 0.05 93 1004.5
20260506060840 13 106 0.0 4.8 0.00 0.05 0.05 93 1004.5
20260506060330 13 106 1.6 4.8 0.00 0.05 0.05 92 1004.5
20260506051318 15 44 1.6 3.2 0.05 0.05 0.05 91 1005.3
20260506050840 15 44 1.6 3.2 0.05 0.05 0.05 89 1005.3
20260506050326 15 102 3.2 3.2 0.05 0.05 0.05 89 1005.3
20260506044830 15 102 1.6 3.2 0.05 0.05 0.05 86 1005.2
20260506044317 15 102 1.6 3.2 0.03 0.03 0.03 85 1004.8
20260506043841 16 102 0.0 3.2 0.00 0.00 0.00 84 1004.8
20260506043315 16 102 1.6 3.2 0.00 0.00 0.00 83 1004.8
20260506042853 16 126 0.0 4.8 0.00 0.00 0.00 82 1004.8
20260506042332 16 126 1.6 4.8 0.00 0.00 0.00 81 1004.8
20260506041816 16 78 0.0 3.2 0.00 0.00 0.00 80 1004.8
20260506041340 16 78 0.0 3.2 0.00 0.00 0.00 81 1004.8
20260506040842 16 151 1.6 3.2 0.00 0.00 0.00 80 1004.8
20260506040326 16 89 0.0 1.6 0.00 0.00 0.00 80 1004.8
20260506035815 16 89 1.6 3.2 0.00 0.00 0.00 80 1004.6
20260506035322 16 89 1.6 3.2 0.00 0.00 0.00 80 1004.6
20260506034820 16 35 1.6 3.2 0.00 0.00 0.00 80 1004.6
20260506034344 16 35 1.6 3.2 0.00 0.00 0.00 80 1004.6
20260506033821 16 107 1.6 3.2 0.00 0.00 0.00 80 1004.6
20260506033333 16 107 0.0 3.2 0.00 0.00 0.00 78 1004.6
20260506032815 16 107 0.0 6.4 0.00 0.00 0.00 78 1004.3
20260506032328 16 129 1.6 6.4 0.00 0.00 0.00 78 1004.3
20260506031815 16 150 1.6 6.4 0.00 0.00 0.00 76 1004.3
20260506031344 16 103 0.0 1.6 0.00 0.00 0.00 76 1004.2
20260506030828 16 103 0.0 3.2 0.00 0.00 0.00 77 1004.2
20260506030325 16 103 1.6 4.8 0.00 0.00 0.00 75 1004.2
20260506025845 16 138 1.6 4.8 0.00 0.00 0.00 75 1004.2
20260506025358 16 147 1.6 4.8 0.00 0.00 0.00 76 1004.2
20260506024833 16 142 3.2 4.8 0.00 0.00 0.00 76 1004.2
20260506024323 16 147 0.0 3.2 0.00 0.00 0.00 76 1004.2
20260506023830 16 147 0.0 3.2 0.00 0.00 0.00 76 1004.2
20260506023339 16 131 3.2 3.2 0.00 0.00 0.00 75 1004.2
20260506022827 16 145 0.0 1.6 0.00 0.00 0.00 76 1004.2
20260506022327 16 228 0.0 3.2 0.00 0.00 0.00 75 1004.2
20260506021816 17 184 1.6 6.4 0.00 0.00 0.00 75 1004.2
20260506021325 17 174 1.6 6.4 0.00 0.00 0.00 74 1004.1
20260506020834 17 161 1.6 3.2 0.00 0.00 0.00 74 1004.1
20260506020313 17 156 1.6 6.4 0.00 0.00 0.00 75 1004.1
20260506015854 17 155 1.6 6.4 0.00 0.00 0.00 74 1004.0
20260506015331 17 165 1.6 4.8 0.00 0.00 0.00 75 1004.0
20260506014843 17 154 3.2 8.0 0.00 0.00 0.00 75 1004.0
20260506014314 17 159 1.6 8.0 0.00 0.00 0.00 75 1003.8
20260506013826 17 131 4.8 8.0 0.00 0.00 0.00 74 1003.8
20260506013352 17 134 3.2 9.7 0.00 0.00 0.00 74 1003.8
20260506012830 17 188 3.2 9.7 0.00 0.00 0.00 74 1003.7
20260506012329 -17 0.0 0.0 0.00 0.00 0.00 1003.7
20260506011816 -17 0.0 0.0 0.00 0.00 0.00 1003.7
20260506011324 -17 0.0 0.0 0.00 0.00 0.00 1003.3
20260506010849 16 221 3.2 8.0 0.00 0.00 0.00 75 1003.3
20260506010346 16 221 3.2 8.0 0.00 0.00 0.00 75 1003.3
20260506005816 16 221 3.2 8.0 0.00 0.00 0.00 74 1003.0
20260506005315 16 150 3.2 8.0 0.00 0.00 0.00 74 1003.0
20260506004825 16 150 3.2 8.0 0.00 0.00 0.00 73 1003.0
20260506004315 16 161 4.8 11.3 0.00 0.00 0.00 74 1002.7
20260506003826 16 140 6.4 11.3 0.00 0.00 0.00 74 1002.7
20260506003329 16 131 4.8 12.9 0.00 0.00 0.00 75 1002.7
20260506002822 16 130 4.8 12.9 0.00 0.00 0.00 75 1002.8
20260506002331 16 142 4.8 11.3 0.00 0.00 0.00 75 1002.8
20260506001817 16 148 4.8 6.4 0.00 0.00 0.00 75 1002.8
20260506001355 16 140 3.2 6.4 0.00 0.00 0.00 76 1002.8
20260506000830 16 136 3.2 8.0 0.00 0.00 0.00 75 1002.8
20260506000325 17 138 3.2 8.0 0.00 0.00 0.00 74 1002.8
20260505235834 17 144 1.6 14.5 0.00 0.00 0.00 75 1002.6
20260505235316 17 147 4.8 19.3 0.00 0.00 0.00 74 1002.6
20260505234822 17 146 8.0 19.3 0.00 0.00 0.00 74 1002.6
20260505234316 16 196 4.8 12.9 0.00 0.00 0.00 77 1002.6
20260505233816 16 146 6.4 9.7 0.00 0.00 0.00 77 1002.6
20260505233331 16 163 4.8 11.3 0.00 0.00 0.00 76 1002.6
20260505232820 17 170 3.2 8.0 0.00 0.00 0.00 77 1002.6
20260505232330 17 164 3.2 8.0 0.00 0.00 0.00 75 1002.6
20260505231843 17 142 3.2 8.0 0.00 0.00 0.00 75 1002.6
20260505231321 17 138 1.6 9.7 0.00 0.00 0.00 72 1002.8
20260505230814 18 126 4.8 16.1 0.00 0.00 0.00 71 1002.8
20260505230319 18 153 4.8 16.1 0.00 0.00 0.00 68 1002.8
20260505225843 18 148 4.8 24.1 0.00 0.00 0.00 70 1002.9
20260505225335 18 141 4.8 24.1 0.00 0.00 0.00 71 1002.9
20260505224820 18 127 8.0 17.7 0.00 0.00 0.00 71 1002.9
20260505224324 18 153 4.8 16.1 0.00 0.00 0.00 72 1002.7
20260505223837 18 175 6.4 16.1 0.00 0.00 0.00 69 1002.7
20260505223328 18 161 6.4 11.3 0.00 0.00 0.00 69 1002.7
20260505222834 18 186 4.8 9.7 0.00 0.00 0.00 72 1002.3
20260505222327 18 150 1.6 6.4 0.00 0.00 0.00 72 1002.3
20260505221818 18 122 3.2 6.4 0.00 0.00 0.00 70 1002.3
20260505221325 18 132 1.6 8.0 0.00 0.00 0.00 71 1002.1
20260505220836 18 115 1.6 8.0 0.00 0.00 0.00 65 1002.1
20260505220315 18 94 3.2 6.4 0.00 0.00 0.00 66 1002.1
20260505215823 18 52 3.2 8.0 0.00 0.00 0.00 68 1002.6
20260505215335 18 9 3.2 12.9 0.00 0.00 0.00 66 1002.6
20260505214824 18 296 8.0 12.9 0.00 0.00 0.00 66 1002.6
20260505214313 18 322 6.4 14.5 0.00 0.00 0.00 67 1002.6
20260505213812 18 346 8.0 14.5 0.00 0.00 0.00 70 1002.6
20260505213320 18 298 6.4 9.7 0.00 0.00 0.00 70 1002.6
20260505212827 19 336 6.4 11.3 0.00 0.00 0.00 72 1002.0
20260505212313 19 236 3.2 24.1 0.00 0.00 0.00 69 1002.0
20260505211814 19 185 6.4 24.1 0.00 0.00 0.00 70 1002.0
20260505211333 19 92 0.0 8.0 0.00 0.00 0.00 69 1001.0
20260505210820 20 80 3.2 12.9 0.00 0.00 0.00 70 1001.0
20260505210333 20 182 4.8 12.9 0.00 0.00 0.00 66 1001.0
20260505205839 19 151 1.6 8.0 0.00 0.00 0.00 69 1001.1
20260505205321 19 129 3.2 8.0 0.00 0.00 0.00 71 1001.1
20260505204834 18 98 3.2 8.0 0.00 0.00 0.00 73 1001.1
20260505204321 18 301 1.6 9.7 0.00 0.00 0.00 77 1001.0
20260505203831 18 247 4.8 9.7 0.00 0.00 0.00 71 1001.0
20260505203326 18 211 4.8 9.7 0.00 0.00 0.00 74 1001.0
20260505202845 18 5 1.6 9.7 0.00 0.00 0.00 80 1000.2
20260505202315 17 15 4.8 12.9 0.00 0.00 0.00 79 1000.2
20260505201829 17 157 4.8 12.9 0.00 0.00 0.00 77 1000.2
20260505201319 -17 0.0 0.0 0.00 0.00 0.00 1001.6
20260505200825 -17 0.0 0.0 0.00 0.00 0.00 1001.6
20260505200317 -17 0.0 0.0 0.00 0.00 0.00 1001.6
20260505195836 22 333 11.3 35.4 0.00 0.00 0.00 48 1001.5
20260505194814 23 28 9.7 35.4 0.00 0.00 0.00 48 1001.5
20260505194326 24 355 4.8 12.9 0.00 0.00 0.00 44 999.4
20260505193818 25 30 4.8 20.9 0.00 0.00 0.00 43 999.4
20260505193348 25 113 4.8 24.1 0.00 0.00 0.00 41 999.4